Temperature
16 16 15 15 15 15 15 15 15 15 15 14 14 14 14 14 14 14 15 15 15 16 16 15 15 15 15 15 15 15 15 15 15 15 15 15 14 14 13 13 13 13 13
16 16 15 15 15 15 15 15 15 15 15 15 15 14 14 14 14 14 15 15 15 15 15 15 15 15 15 15 15 15 15 15 15 14 15 15 15 14 13 13 12 12 12
16 16 16 15 15 15 15 15 14 14 15 15 14 14 14 14 14 14 14 15 15 15 15 15 15 15 15 15 15 15 15 15 15 14 14 15 15 14 14 13 12 12 12
16 16 16 16 15 15 15 15 14 14 14 14 14 14 14 14 14 14 14 14 15 15 15 15 15 15 15 15 15 15 15 14 14 14 13 14 14 14 14 13 13 12 12
17 17 17 16 16 15 15 15 14 14 14 14 14 14 14 14 14 14 14 14 14 15 15 15 15 15 15 15 15 15 14 14 14 13 13 13 14 14 15 15 14 13 12
17 17 17 16 16 16 16 15 15 15 15 15 15 14 14 15 15 15 14 14 14 15 15 15 15 15 15 15 15 14 14 14 14 13 13 14 14 15 15 15 14 13 12
18 17 17 16 16 16 16 15 15 15 15 15 15 15 15 15 15 15 14 14 14 14 15 15 14 14 15 15 14 14 14 14 14 14 14 15 15 15 15 15 14 14 13
17 17 17 17 16 16 16 15 15 15 15 15 15 14 14 14 14 15 14 14 14 14 14 14 14 14 14 14 14 14 14 14 14 14 15 15 15 15 15 14 14 13 12
17 17 17 17 16 16 16 15 15 15 15 14 14 14 14 14 14 14 14 14 14 14 14 14 14 14 14 14 14 14 14 15 15 15 15 14 14 14 14 14 14 13 13
16 16 16 16 16 16 16 15 15 15 14 14 13 13 14 14 14 13 13 13 13 14 14 14 14 14 14 14 14 14 14 14 14 15 14 14 14 14 14 14 14 14 14
14 14 15 15 15 16 15 15 15 14 14 13 13 13 13 13 13 13 13 13 13 13 14 14 14 14 13 14 14 13 13 13 13 13 13 13 13 14 14 14 14 14 14
13 13 13 13 14 14 14 14 14 14 13 13 13 13 12 12 12 12 12 12 13 13 13 13 13 13 13 13 13 13 12 12 13 13 13 12 13 13 13 13 13 13 13
12 12 12 12 12 12 13 13 13 13 13 12 12 12 12 12 12 12 12 12 12 12 13 13 13 13 13 13 12 12 12 12 12 12 12 12 12 12 12 12 12 12 12
11 11 11 11 11 11 10 11 11 12 12 12 12 12 12 12 12 12 12 12 12 12 12 12 12 12 12 12 12 12 11 11 11 11 11 11 11 11 11 12 12 12 12
11 11 11 11 11 10 10 11 11 11 12 12 11 11 11 11 11 11 11 11 11 11 11 11 11 11 11 11 11 11 11 11 11 11 11 11 11 11 11 11 11 11 11
11 11 10 10 10 11 11 11 11 11 11 11 11 11 11 11 11 11 11 11 11 11 11 11 11 10 10 10 11 10 10 10 10 10 10 10 10 10 11 11 11 11 11
11 11 11 10 10 10 10 11 11 11 11 11 11 11 11 11 11 11 11 11 11 11 10 10 10 10 10 10 10 10 10 10 10 10 10 10 10 10 10 10 10 10 11
11 11 11 10 10 10 10 10 10 10 10 10 10 10 10 10 10 11 11 11 11 10 10 10 10 10 9 9 9 9 9 10 10 10 10 10 10 10 10 10 10 10 10
11 11 11 10 10 10 10 10 10 10 10 10 10 10 9 10 10 10 10 10 10 10 9 9 9 9 9 9 9 9 9 9 9 10 10 10 10 9 9 9 9 9 10
11 11 11 10 10 10 10 10 10 10 10 10 9 9 9 9 9 9 9 9 9 9 9 9 9 9 9 9 9 9 9 9 9 9 9 9 9 9 9 9 9 9 10
11 11 11 10 10 10 10 10 10 10 10 10 9 9 9 9 9 9 9 9 9 9 9 9 9 9 9 9 9 9 9 9 9 9 9 9 9 9 9 9 9 9 9
11 10 10 10 10 10 10 10 10 10 9 9 9 9 9 9 9 9 9 9 9 9 9 9 9 9 9 9 9 9 9 9 9 9 9 9 9 9 9 9 9 9 9
10 10 10 10 10 10 10 10 10 10 10 9 9 9 9 9 9 9 9 9 9 9 9 9 9 9 9 9 9 9 9 9 9 8 9 9 9 9 9 9 9 9 9
10 10 10 10 10 10 10 10 10 10 10 10 9 9 9 9 9 9 9 9 9 9 9 9 9 9 9 9 9 9 9 9 8 9 9 9 9 9 9 9 8 8 8
10 10 10 10 10 10 10 10 10 10 10 10 10 10 10 9 9 9 9 9 9 9 9 9 9 9 9 9 9 9 9 9 9 9 8 8 8 8 8 8 8 8 7
10 9 10 10 10 10 10 10 10 10 10 9 9 9 9 9 9 9 9 9 9 9 9 9 9 9 9 9 9 9 9 9 9 9 9 9 8 8 8 8 7 7 7
Wind_Speed
5 4 3 4 5 5 5 6 6 6 7 8 9 8 8 8 7 5 4 4 5 5 5 6 8 7 6 7 6 6 6 5 5 3 2 2 4 5 5 5 6 6 7
6 6 5 5 6 6 6 6 6 6 7 7 8 7 7 6 6 6 6 7 7 7 7 8 9 7 8 7 7 8 7 6 5 5 3 3 3 4 4 3 3 4 5
7 7 7 7 8 8 8 7 5 4 4 4 6 7 6 6 6 7 8 8 8 9 9 9 10 9 10 8 8 9 8 7 4 5 5 2 2 3 3 2 2 2 3
6 6 7 8 9 9 9 8 7 6 5 5 5 5 6 6 7 7 7 8 8 9 9 10 10 11 12 11 10 9 8 8 5 6 5 3 3 3 3 3 2 1 1
7 7 8 7 7 8 8 9 8 8 8 7 6 6 5 5 6 7 7 8 9 9 9 10 11 13 15 12 9 10 11 10 8 6 5 4 5 6 6 5 4 2 1
8 9 7 6 7 7 8 8 8 9 8 7 7 6 5 4 5 6 7 7 8 9 9 8 8 11 14 17 17 16 17 14 12 9 6 6 9 7 6 5 5 4 3
8 8 7 7 7 7 7 8 9 9 8 7 7 6 5 5 6 6 6 5 7 7 7 5 5 6 9 8 13 16 18 21 20 14 11 10 10 12 12 9 7 5 4
8 8 8 8 8 7 8 8 8 7 7 6 6 5 4 5 5 5 6 4 5 6 6 6 5 4 4 7 7 9 11 14 17 15 14 12 10 11 13 11 9 6 4
7 8 8 7 7 7 8 8 7 6 5 4 4 5 4 4 4 4 2 2 3 4 4 5 5 4 4 6 6 7 9 9 11 12 9 9 14 18 17 10 9 6 3
4 6 6 7 8 8 8 6 5 5 6 6 4 3 4 4 4 3 4 2 2 2 3 4 8 7 6 6 4 5 7 6 5 6 6 9 11 17 22 14 12 9 4
4 3 2 4 6 7 5 6 7 7 7 6 5 2 3 4 4 4 6 4 4 4 3 3 3 7 7 7 6 4 3 4 5 6 5 5 5 7 11 11 11 9 7
4 4 3 1 1 2 4 5 7 7 6 5 3 1 1 2 3 4 7 7 6 5 4 3 3 4 5 4 4 4 4 5 4 5 5 7 8 8 8 8 10 8 5
4 4 3 3 3 3 4 4 3 4 4 4 2 1 2 2 2 4 5 8 8 4 3 4 3 3 3 3 3 3 4 4 4 5 6 6 6 6 6 6 6 7 5
3 2 2 3 4 4 3 3 2 3 3 3 2 2 2 2 2 2 1 4 6 4 4 5 5 5 3 2 2 2 3 4 4 4 4 4 4 5 6 6 5 6 4
3 2 3 3 4 4 4 2 2 2 2 3 2 2 3 4 4 5 5 4 5 5 6 4 3 2 1 0 0 1 1 2 3 3 3 4 5 6 6 5 5 6 6
3 2 2 2 3 4 4 5 8 6 6 4 1 2 2 4 4 4 7 8 11 12 6 3 3 3 3 3 3 3 3 4 4 4 4 5 6 7 7 6 6 8 9
3 2 2 2 2 3 3 4 3 4 7 8 8 6 4 5 4 2 6 10 12 10 3 3 3 4 4 4 4 4 3 3 3 4 5 4 5 6 6 8 8 8 7
4 3 3 2 2 2 3 2 2 2 1 2 5 8 8 8 8 8 11 9 5 3 1 2 3 4 4 4 4 4 4 4 3 4 4 4 4 4 6 7 8 8 7
4 3 2 2 2 3 3 2 2 2 2 2 2 4 7 7 8 7 5 3 2 3 3 3 3 3 4 4 4 4 4 4 4 4 4 4 4 4 4 5 7 9 6
3 5 4 3 3 3 3 3 3 3 3 3 2 2 2 3 2 2 1 1 1 2 3 4 4 4 4 4 4 4 4 4 4 4 4 4 4 4 4 5 6 6 5
3 4 5 4 3 3 3 3 4 4 4 3 1 2 3 1 1 1 1 2 3 3 3 3 4 4 4 4 4 5 6 5 5 5 5 5 4 4 3 3 3 4 5
4 3 2 2 2 3 3 4 4 3 3 2 1 1 3 1 1 1 2 2 2 3 3 3 3 3 4 4 4 5 5 5 5 5 5 5 5 5 4 4 3 3 4
4 3 2 2 2 4 4 4 3 3 2 2 2 2 1 0 1 2 2 2 2 2 3 3 4 4 4 3 4 5 5 5 5 5 6 6 6 6 6 6 6 6 5
4 4 4 3 3 4 4 3 3 2 3 3 2 1 1 1 2 3 3 2 1 2 3 3 4 5 6 4 4 6 7 7 6 5 7 7 7 6 6 6 7 8 8
5 5 4 4 4 4 3 3 3 3 3 2 2 2 2 2 3 3 3 3 3 3 4 4 3 4 6 6 6 6 8 8 7 6 6 5 7 7 7 7 6 6 6
5 5 5 4 4 3 3 3 3 3 3 3 3 3 3 4 4 4 4 4 4 4 4 4 5 5 6 6 7 7 7 7 7 8 6 4 5 5 6 5 7 6 6
Wind_Direction
195 205 192 196 198 186 183 188 181 173 170 175 182 185 190 195 201 204 205 214 215 216 204 206 217 200 196 197 193 185 180 162 156 151 138 148 154 152 124 111 99 79 65
185 195 203 189 187 186 186 186 179 177 181 181 182 190 195 194 194 203 217 222 225 233 232 222 224 210 206 197 193 193 188 172 152 163 161 149 158 154 129 118 100 80 60
179 190 201 194 190 193 192 188 184 181 187 183 180 187 188 190 199 209 214 220 222 228 229 227 226 206 210 203 199 197 191 184 150 147 156 140 133 145 128 108 92 57 73
188 199 207 204 201 197 192 188 185 181 185 188 190 196 203 205 206 209 214 223 229 232 227 224 222 212 212 203 201 195 180 175 157 146 150 153 147 145 148 157 160 146 90
197 216 225 210 198 192 190 190 187 188 194 191 199 216 222 216 210 206 211 220 227 230 225 220 218 217 217 206 198 189 179 180 170 165 159 156 170 174 194 171 158 142 158
207 222 227 207 194 192 188 182 184 193 196 192 203 215 227 231 240 234 218 218 223 223 226 223 217 221 223 215 208 195 186 184 188 184 175 183 196 191 164 161 145 151 201
217 225 216 203 199 197 186 179 187 191 190 195 200 203 226 253 270 277 273 237 225 220 215 209 217 211 209 208 214 207 200 201 198 190 190 195 190 189 173 170 172 167 185
217 227 222 211 210 199 191 195 195 188 191 192 194 197 217 257 278 302 308 248 223 215 200 193 208 220 199 201 202 200 200 208 207 202 205 203 192 178 177 177 162 127 93
230 235 235 226 221 206 203 203 193 181 178 169 177 187 204 257 289 296 264 210 228 222 199 186 182 179 184 188 189 197 202 212 210 205 206 191 177 170 162 143 149 154 168
271 256 245 235 229 221 204 184 177 171 165 157 159 175 206 242 270 261 180 171 190 174 171 179 176 167 164 147 152 183 207 207 178 179 173 173 170 174 173 172 171 173 159
340 327 278 240 232 227 196 165 161 160 155 150 145 163 221 244 268 249 191 176 174 165 176 191 188 162 153 157 152 159 203 181 171 166 166 170 172 179 186 186 182 177 174
38 40 31 10 253 205 165 151 154 155 145 132 118 89 258 263 261 255 216 199 180 170 186 195 197 170 152 148 150 170 192 167 167 177 187 197 199 197 194 187 183 181 181
48 47 47 47 40 74 115 127 133 139 134 132 131 175 283 279 276 280 246 204 184 165 171 176 174 158 133 124 132 143 147 152 173 202 213 213 205 185 166 162 164 165 149
45 35 49 69 67 63 78 116 147 174 160 146 156 219 262 275 261 256 225 165 157 120 103 102 91 90 81 78 83 107 148 171 184 206 218 208 176 175 175 166 164 161 161
75 53 46 67 93 91 81 83 158 174 162 153 191 213 228 254 245 205 172 156 149 137 117 92 86 93 120 176 235 238 223 221 223 216 214 199 192 195 186 168 160 163 183
108 74 60 81 97 108 106 89 61 65 65 81 126 185 229 257 285 216 185 162 150 146 126 142 165 180 201 211 217 224 226 226 225 229 236 229 214 208 197 181 176 182 194
148 153 129 109 107 118 122 117 101 56 54 53 46 51 61 45 37 111 151 148 150 148 132 162 187 201 211 219 224 231 242 252 247 239 240 231 217 212 202 197 193 190 190
150 155 143 136 132 132 133 132 136 139 79 37 38 51 67 66 71 97 116 117 134 146 157 188 210 218 220 221 224 230 240 249 253 257 249 227 210 206 207 202 196 186 174
154 149 130 120 125 129 128 124 127 135 122 104 83 67 72 73 75 92 103 85 149 203 224 231 231 229 229 230 232 231 228 230 238 242 242 223 207 202 202 197 190 175 161
159 151 135 121 108 103 103 103 103 112 116 116 108 83 67 63 70 74 71 57 222 237 235 236 240 238 233 229 227 225 225 225 227 227 226 216 204 198 201 194 185 174 163
146 134 124 110 101 99 95 97 109 118 125 129 144 192 165 124 146 234 249 253 252 252 248 242 236 235 235 230 224 223 224 226 217 214 213 207 196 193 190 183 178 164 150
144 136 130 130 124 112 103 98 104 107 116 120 99 116 181 187 337 331 310 295 283 273 268 264 261 250 239 233 230 231 234 234 224 211 207 202 195 188 181 177 169 159 153
149 145 137 121 112 121 110 103 107 114 112 118 129 118 134 271 314 321 319 310 293 286 279 268 271 271 256 236 229 230 236 235 224 207 200 197 193 191 186 189 182 171 175
151 148 140 126 111 114 118 120 124 121 110 106 112 113 106 359 350 347 345 341 317 284 273 271 274 286 286 268 249 242 243 245 230 210 200 195 193 193 192 194 192 189 183
146 140 134 129 129 126 124 123 122 108 93 92 90 80 57 43 30 18 13 8 356 336 325 314 296 295 294 285 275 265 260 254 242 218 199 197 198 197 196 198 195 186 184
143 134 125 119 119 121 118 115 111 106 92 76 65 58 54 50 40 28 16 8 355 342 338 337 338 344 340 327 317 309 293 268 244 222 202 190 190 191 188 193 193 190 192
Height
1478 1479 1480 1482 1483 1483 1484 1486 1488 1490 1491 1493 1496 1499 1503 1506 1509 1512 1515 1518 1520 1523 1524 1526 1527 1529 1531 1533 1535 1537 1539 1541 1543 1546 1547 1548 1549 1549 1549 1549 1550 1550 1549
1477 1478 1479 1480 1481 1483 1484 1486 1488 1490 1493 1494 1497 1500 1503 1506 1509 1511 1513 1515 1517 1518 1520 1521 1522 1524 1526 1528 1530 1532 1534 1537 1539 1541 1543 1545 1546 1547 1547 1547 1548 1548 1548
1475 1476 1477 1478 1479 1480 1482 1484 1487 1490 1492 1494 1497 1499 1502 1504 1506 1508 1509 1511 1512 1513 1514 1515 1516 1518 1520 1522 1525 1527 1529 1532 1534 1537 1539 1542 1543 1544 1544 1545 1545 1546 1546
1473 1473 1474 1475 1476 1478 1479 1482 1484 1487 1490 1492 1495 1497 1499 1501 1502 1504 1505 1506 1507 1508 1509 1510 1511 1512 1514 1517 1519 1521 1524 1526 1529 1532 1535 1538 1539 1541 1541 1542 1542 1543 1544
1470 1470 1471 1473 1474 1475 1477 1478 1480 1483 1486 1489 1491 1493 1496 1497 1499 1499 1500 1501 1502 1503 1503 1504 1505 1506 1508 1511 1513 1515 1517 1520 1523 1526 1529 1532 1534 1536 1537 1538 1539 1540 1541
1467 1468 1469 1470 1471 1473 1474 1476 1478 1480 1483 1485 1487 1489 1491 1492 1493 1494 1494 1495 1495 1496 1497 1499 1500 1501 1503 1505 1507 1510 1512 1513 1516 1519 1523 1526 1529 1532 1535 1536 1537 1537 1538
1463 1465 1466 1467 1468 1470 1472 1474 1475 1477 1479 1481 1484 1485 1486 1487 1488 1489 1489 1490 1490 1491 1492 1494 1496 1497 1499 1501 1503 1505 1506 1508 1511 1514 1516 1520 1525 1528 1531 1533 1533 1534 1535
1459 1461 1462 1463 1465 1466 1468 1470 1471 1473 1475 1477 1480 1481 1482 1483 1484 1484 1485 1485 1486 1487 1488 1489 1492 1494 1496 1498 1499 1501 1503 1505 1507 1509 1512 1517 1521 1525 1527 1529 1531 1532 1532
1453 1455 1457 1459 1460 1461 1463 1465 1466 1468 1470 1472 1475 1477 1479 1480 1480 1481 1482 1482 1483 1484 1484 1486 1488 1490 1492 1494 1495 1497 1499 1501 1503 1505 1508 1513 1516 1519 1522 1524 1526 1527 1528
1448 1449 1451 1452 1453 1455 1457 1459 1461 1463 1465 1467 1470 1472 1475 1476 1477 1478 1479 1479 1480 1480 1481 1483 1484 1486 1488 1490 1491 1493 1495 1497 1499 1501 1504 1508 1511 1514 1516 1519 1522 1523 1524
1446 1446 1446 1446 1447 1449 1451 1453 1455 1457 1460 1463 1466 1468 1471 1473 1474 1475 1476 1477 1477 1478 1479 1480 1481 1483 1484 1486 1488 1489 1491 1493 1495 1497 1501 1504 1507 1509 1511 1514 1517 1520 1521
1446 1445 1444 1444 1444 1444 1446 1448 1451 1453 1457 1460 1462 1465 1467 1469 1470 1471 1473 1474 1475 1476 1476 1478 1479 1480 1481 1483 1485 1486 1488 1491 1493 1494 1496 1498 1501 1503 1506 1509 1513 1515 1518
1447 1445 1444 1443 1443 1443 1443 1445 1448 1451 1454 1457 1460 1462 1464 1466 1467 1469 1470 1471 1472 1473 1474 1475 1477 1478 1479 1481 1483 1484 1486 1488 1490 1492 1493 1495 1497 1500 1502 1505 1507 1509 1512
1447 1446 1445 1444 1444 1443 1444 1445 1448 1451 1454 1456 1458 1460 1461 1462 1464 1466 1467 1469 1470 1472 1473 1474 1475 1476 1478 1479 1480 1482 1484 1485 1487 1489 1490 1492 1493 1495 1497 1500 1502 1504 1506
1448 1447 1446 1446 1445 1445 1445 1446 1448 1451 1453 1455 1456 1458 1458 1459 1461 1463 1464 1466 1468 1470 1471 1472 1474 1475 1475 1476 1477 1478 1480 1482 1483 1484 1485 1486 1487 1489 1491 1493 1495 1498 1500
1448 1448 1447 1446 1446 1447 1447 1448 1450 1452 1453 1455 1456 1456 1457 1458 1459 1460 1462 1464 1466 1467 1469 1470 1471 1472 1473 1474 1475 1476 1477 1478 1479 1480 1480 1481 1482 1483 1484 1486 1488 1490 1493
1449 1448 1448 1448 1448 1448 1449 1450 1451 1452 1453 1454 1455 1455 1456 1456 1457 1458 1460 1461 1463 1465 1467 1468 1469 1470 1470 1471 1472 1473 1474 1475 1475 1475 1476 1476 1476 1477 1477 1479 1481 1482 1485
1449 1449 1448 1448 1449 1449 1450 1451 1451 1452 1453 1453 1454 1454 1455 1456 1457 1458 1459 1461 1462 1463 1465 1465 1466 1467 1467 1468 1469 1470 1470 1471 1471 1471 1471 1471 1471 1472 1471 1471 1473 1475 1477
1450 1449 1449 1449 1449 1449 1450 1450 1451 1451 1452 1453 1453 1453 1454 1455 1456 1457 1459 1460 1461 1462 1463 1464 1464 1465 1465 1466 1466 1467 1467 1467 1467 1466 1466 1467 1467 1467 1467 1467 1467 1469 1472
1450 1450 1449 1450 1450 1450 1451 1451 1452 1452 1453 1453 1454 1454 1454 1455 1456 1457 1458 1459 1460 1460 1461 1461 1462 1462 1462 1462 1462 1462 1463 1463 1463 1463 1463 1463 1463 1464 1464 1464 1465 1467 1469
1450 1450 1450 1451 1452 1452 1452 1453 1453 1453 1454 1454 1455 1456 1456 1456 1457 1458 1459 1459 1459 1460 1460 1460 1459 1459 1459 1459 1458 1458 1458 1459 1459 1460 1460 1460 1460 1460 1460 1461 1462 1464 1466
1449 1450 1451 1452 1452 1453 1454 1454 1454 1455 1455 1456 1456 1457 1458 1458 1458 1459 1459 1459 1459 1459 1459 1458 1457 1457 1456 1455 1454 1454 1454 1454 1455 1455 1456 1456 1456 1456 1457 1457 1458 1459 1462
1449 1450 1451 1452 1453 1453 1454 1455 1455 1456 1456 1457 1457 1458 1459 1459 1459 1460 1459 1459 1459 1458 1458 1457 1456 1454 1452 1451 1451 1450 1450 1450 1450 1450 1451 1451 1452 1452 1453 1454 1454 1455 1457
1449 1451 1452 1452 1453 1453 1455 1456 1456 1457 1458 1458 1459 1459 1460 1460 1461 1460 1460 1459 1459 1458 1457 1455 1454 1452 1450 1449 1448 1447 1446 1445 1445 1445 1446 1446 1447 1447 1448 1449 1450 1451 1453
1449 1451 1452 1453 1454 1455 1456 1457 1458 1458 1459 1459 1460 1460 1461 1461 1461 1460 1459 1458 1457 1457 1455 1454 1452 1451 1449 1447 1446 1444 1443 1442 1441 1441 1441 1441 1442 1442 1443 1443 1445 1446 1448
1449 1451 1452 1453 1454 1456 1457 1458 1459 1459 1460 1460 1461 1461 1461 1461 1460 1459 1458 1457 1456 1455 1454 1452 1451 1449 1448 1446 1444 1443 1441 1440 1439 1438 1438 1438 1438 1438 1438 1439 1440 1442 1443